When you browse on this site, cookies collect data to enhance your experience and personalize the content and advertising you see.
Visit our Privacy Policy to learn more. By continuing to use the site, you agree to this use of cookies and data.
  • In France
  • List of Countries
  • For 7 days
  • Water Temperature
  • Satellite Maps
  • Weather Map
  • Weather Widgets
  • user-avatar
    Login

    Hourly Weather Kabul

    Today, 19 February, Tuesday

    Time Temperature Precipitation Wind Pressure Humidity
    00:00 -3°C° 0 mm 2 mps 603 mmHg 60%
    01:00 -4°C° 0 mm 2 mps 603 mmHg 59%
    02:00 -4°C° 0 mm 2 mps 603 mmHg 58%
    03:00 -4°C° 0 mm 2 mps 603 mmHg 56%
    04:00 -5°C° 0 mm 2 mps 602 mmHg 55%
    05:00 -6°C° 0 mm 2 mps 601 mmHg 59%
    06:00 -6°C° 0 mm 2 mps 601 mmHg 58%
    07:00 -6°C° 0 mm 2 mps 602 mmHg 57%
    08:00 -6°C° 0 mm 2 mps 602 mmHg 55%
    09:00 -4°C° 0 mm 2 mps 602 mmHg 52%
    10:00 -3°C° 0 mm 2 mps 603 mmHg 49%
    11:00 -2°C° 0 mm 2 mps 603 mmHg 45%
    12:00 -1°C° 0 mm 2 mps 603 mmHg 46%
    13:00 +1°C° 0 mm 2 mps 603 mmHg 47%
    14:00 +1°C° 0 mm 2 mps 604 mmHg 48%
    15:00 +1°C° 0 mm 2 mps 604 mmHg 49%
    16:00 0°C° 0 mm 3 mps 604 mmHg 49%
    17:00 0°C° 0 mm 3 mps 604 mmHg 50%
    18:00 -1°C° 0.2 mm 3 mps 605 mmHg 55%
    19:00 -2°C° 0.2 mm 3 mps 605 mmHg 60%
    20:00 -3°C° 0.2 mm 2 mps 605 mmHg 65%
    21:00 -5°C° 0.6 mm 3 mps 605 mmHg 73%
    22:00 -6°C° 0.6 mm 3 mps 605 mmHg 81%
    23:00 -6°C° 0.6 mm 3 mps 605 mmHg 89%

    Tomorrow, 20 February, Wednesday

    Time Temperature Precipitation Wind Pressure Humidity
    00:00 -6°C° 0.7 mm 2 mps 605 mmHg 88%
    01:00 -6°C° 0.7 mm 2 mps 605 mmHg 88%
    02:00 -6°C° 0.7 mm 2 mps 605 mmHg 87%
    03:00 -6°C° 0.1 mm 2 mps 605 mmHg 86%
    04:00 -4°C° 0.1 mm 1 mps 605 mmHg 85%
    05:00 -4°C° 0.1 mm 1 mps 605 mmHg 84%
    06:00 -5°C° 0.4 mm 2 mps 605 mmHg 85%
    07:00 -5°C° 0.4 mm 2 mps 605 mmHg 87%
    08:00 -6°C° 0.4 mm 3 mps 605 mmHg 89%
    09:00 -6°C° 0.9 mm 3 mps 605 mmHg 89%
    10:00 -4°C° 0.9 mm 2 mps 605 mmHg 89%
    11:00 -4°C° 0.9 mm 2 mps 605 mmHg 89%
    12:00 -5°C° 1.1 mm 3 mps 604 mmHg 90%
    13:00 -4°C° 1.1 mm 3 mps 604 mmHg 91%
    14:00 -4°C° 1.1 mm 3 mps 603 mmHg 93%
    15:00 -4°C° 1.3 mm 3 mps 603 mmHg 93%
    16:00 -4°C° 1.3 mm 3 mps 603 mmHg 93%
    17:00 -4°C° 1.3 mm 3 mps 603 mmHg 93%
    18:00 -4°C° 1.2 mm 3 mps 603 mmHg 93%
    19:00 -3°C° 1.2 mm 2 mps 604 mmHg 94%
    20:00 -3°C° 1.2 mm 2 mps 604 mmHg 94%
    21:00 -3°C° 1.1 mm 2 mps 604 mmHg 94%
    22:00 -3°C° 1.1 mm 2 mps 604 mmHg 94%
    23:00 -1°C° 1.1 mm 1 mps 604 mmHg 94%

    Day after tomorrow, 21 February, Thursday

    Time Temperature Precipitation Wind Pressure Humidity
    00:00 -2°C° 0.3 mm 1 mps 604 mmHg 92%
    01:00 -2°C° 0.3 mm 1 mps 603 mmHg 91%
    02:00 -2°C° 0.3 mm 1 mps 603 mmHg 90%
    03:00 -3°C° 0.1 mm 1 mps 603 mmHg 88%
    04:00 -3°C° 0.1 mm 1 mps 603 mmHg 87%
    05:00 -3°C° 0.1 mm 1 mps 603 mmHg 86%
    06:00 -3°C° 0.1 mm 1 mps 604 mmHg 85%
    07:00 -3°C° 0.1 mm 1 mps 604 mmHg 84%
    08:00 -2°C° 0.1 mm 1 mps 605 mmHg 83%
    09:00 -1°C° 0 mm 1 mps 605 mmHg 82%
    10:00 0°C° 0 mm 1 mps 606 mmHg 82%
    11:00 +1°C° 0 mm 1 mps 606 mmHg 81%
    12:00 +1°C° 0 mm 1 mps 606 mmHg 82%
    13:00 +2°C° 0 mm 1 mps 606 mmHg 83%
    14:00 +2°C° 0 mm 1 mps 606 mmHg 84%
    15:00 +2°C° 0 mm 1 mps 606 mmHg 82%
    16:00 +1°C° 0 mm 1 mps 605 mmHg 79%
    17:00 +1°C° 0 mm 1 mps 605 mmHg 77%
    18:00 0°C° 0 mm 1 mps 606 mmHg 74%
    19:00 -4°C° 0 mm 2 mps 606 mmHg 72%
    20:00 -5°C° 0 mm 2 mps 607 mmHg 69%
    21:00 -5°C° 0 mm 2 mps 607 mmHg 68%
    22:00 -7°C° 0 mm 3 mps 607 mmHg 66%
    23:00 -7°C° 0 mm 3 mps 607 mmHg 64%

    22 February, Friday

    Time Temperature Precipitation Wind Pressure Humidity
    00:00 -8°C° 0 mm 3 mps 607 mmHg 62%
    01:00 -7°C° 0 mm 2 mps 607 mmHg 60%
    02:00 -7°C° 0 mm 2 mps 607 mmHg 59%
    03:00 -7°C° 0 mm 2 mps 607 mmHg 57%
    04:00 -8°C° 0 mm 2 mps 607 mmHg 56%
    05:00 -8°C° 0 mm 2 mps 607 mmHg 55%
    06:00 -8°C° 0 mm 2 mps 607 mmHg 55%
    07:00 -8°C° 0 mm 2 mps 607 mmHg 54%
    08:00 -7°C° 0 mm 2 mps 608 mmHg 54%
    09:00 -6°C° 0 mm 2 mps 608 mmHg 52%
    10:00 -2°C° 0 mm 1 mps 608 mmHg 50%
    11:00 0°C° 0 mm 1 mps 608 mmHg 48%
    12:00 +1°C° 0 mm 1 mps 608 mmHg 53%
    13:00 +1°C° 0 mm 1 mps 607 mmHg 57%
    14:00 +2°C° 0 mm 1 mps 607 mmHg 62%
    15:00 +1°C° 0 mm 1 mps 607 mmHg 63%
    16:00 +1°C° 0 mm 1 mps 606 mmHg 64%
    17:00 0°C° 0 mm 1 mps 606 mmHg 65%
    18:00 -1°C° 0 mm 1 mps 607 mmHg 63%
    19:00 -4°C° 0 mm 2 mps 607 mmHg 62%
    20:00 -6°C° 0 mm 2 mps 607 mmHg 60%
    21:00 -6°C° 0 mm 2 mps 608 mmHg 58%
    22:00 -6°C° 0 mm 2 mps 608 mmHg 56%
    23:00 -6°C° 0 mm 2 mps 608 mmHg 55%

    23 February, Saturday

    Time Temperature Precipitation Wind Pressure Humidity
    00:00 -7°C° 0 mm 2 mps 608 mmHg 54%
    01:00 -7°C° 0 mm 2 mps 608 mmHg 53%
    02:00 -7°C° 0 mm 2 mps 607 mmHg 52%
    03:00 -7°C° 0 mm 2 mps 607 mmHg 51%
    04:00 -7°C° 0 mm 2 mps 607 mmHg 50%
    05:00 -8°C° 0 mm 2 mps 607 mmHg 50%
    06:00 -7°C° 0 mm 2 mps 607 mmHg 49%
    07:00 -7°C° 0 mm 2 mps 607 mmHg 49%
    08:00 -7°C° 0 mm 2 mps 607 mmHg 49%
    09:00 -3°C° 0 mm 1 mps 607 mmHg 46%
    10:00 -2°C° 0 mm 1 mps 607 mmHg 42%
    11:00 0°C° 0 mm 1 mps 607 mmHg 39%
    12:00 +1°C° 0 mm 1 mps 607 mmHg 43%
    13:00 +1°C° 0 mm 1 mps 607 mmHg 48%
    14:00 +2°C° 0 mm 1 mps 606 mmHg 52%
    15:00 +2°C° 0 mm 1 mps 606 mmHg 55%
    16:00 +1°C° 0 mm 1 mps 606 mmHg 57%
    17:00 +1°C° 0 mm 1 mps 606 mmHg 59%
    18:00 0°C° 0 mm 1 mps 606 mmHg 59%
    19:00 -1°C° 0 mm 1 mps 606 mmHg 59%
    20:00 -5°C° 0 mm 2 mps 606 mmHg 59%
    21:00 -5°C° 0 mm 2 mps 606 mmHg 58%
    22:00 -5°C° 0 mm 2 mps 606 mmHg 57%
    23:00 -5°C° 0 mm 2 mps 607 mmHg 56%

    24 February, Sunday

    Time Temperature Precipitation Wind Pressure Humidity
    00:00 -6°C° 0 mm 2 mps 606 mmHg 56%
    01:00 -6°C° 0 mm 2 mps 606 mmHg 55%
    02:00 -6°C° 0 mm 2 mps 606 mmHg 54%
    03:00 -6°C° 0 mm 2 mps 606 mmHg 54%
    04:00 -6°C° 0 mm 2 mps 606 mmHg 53%
    05:00 -7°C° 0 mm 2 mps 606 mmHg 53%
    06:00 -6°C° 0 mm 2 mps 606 mmHg 52%
    07:00 -6°C° 0 mm 2 mps 606 mmHg 52%
    08:00 -6°C° 0 mm 2 mps 606 mmHg 52%
    09:00 -4°C° 0 mm 2 mps 606 mmHg 51%
    10:00 -3°C° 0 mm 2 mps 606 mmHg 50%
    11:00 +1°C° 0 mm 1 mps 607 mmHg 49%
    12:00 +1°C° 0 mm 1 mps 606 mmHg 52%
    13:00 +2°C° 0 mm 1 mps 606 mmHg 54%
    14:00 +2°C° 0 mm 1 mps 605 mmHg 57%
    15:00 +2°C° 0 mm 1 mps 605 mmHg 57%
    16:00 +2°C° 0 mm 1 mps 605 mmHg 57%
    17:00 +2°C° 0 mm 1 mps 605 mmHg 57%
    18:00 0°C° 0 mm 1 mps 605 mmHg 57%
    19:00 -3°C° 0 mm 2 mps 606 mmHg 56%
    20:00 -4°C° 0 mm 2 mps 606 mmHg 56%
    21:00 -5°C° 0 mm 2 mps 606 mmHg 55%
    22:00 -6°C° 0 mm 3 mps 606 mmHg 54%
    23:00 -7°C° 0 mm 3 mps 606 mmHg 53%
    Show more